Date String (YYYY-MM-DD hh:mm:ss) UTC,Instrument flags,Ambient pressure (hPa),Sample flow (lpm),Bypass flow (lpm),Sample temperature (°C),Ambient temperature (°C),ASC tube jacket temperature (°C),LED temperature (°C),Box temperature (°C),Sample RH (%),Span deviation,Mass concentration (μg/m³),Mass concentration (μg/m³),Mass concentration (μg/m³)
DateTimeUTC,F1_M11,P_M11,Q1_M11,Q2_M11,T1_M11,T2_M11,T3_M11,T4_M11,T5_M11,U1_M11,ZSPAN_M11,X2_M11,X0_M11,X1_M11
2022-07-20 15:00:00,,0830.6,5.00,0.00,29.7,27.7,00.0,38.4,31.5,19.4,0003.8,0008.02,0017.66,0006.81
2022-07-20 15:01:00,,0830.6,5.01,0.00,29.6,27.8,00.0,38.4,31.5,19.2,0003.7,0008.04,0018.17,0006.83
2022-07-20 15:02:00,,0830.6,4.99,0.00,29.6,28.0,00.0,38.4,31.5,18.9,0003.8,0008.11,0018.89,0006.86
2022-07-20 15:03:00,,0830.6,5.00,0.00,29.7,28.1,00.0,38.4,31.5,18.8,0004.0,0008.17,0018.92,0006.88
2022-07-20 15:04:00,,0830.6,5.00,0.00,29.7,28.3,00.0,38.4,31.6,18.7,0003.9,0008.21,0020.03,0006.91
2022-07-20 15:05:00,,0830.6,5.00,0.00,29.7,28.4,00.0,38.4,31.6,18.8,0003.9,0008.23,0019.40,0006.94
2022-07-20 15:06:00,,0830.5,4.99,0.00,29.7,28.5,00.0,38.4,31.7,18.8,0004.0,0008.23,0018.90,0006.96
2022-07-20 15:07:00,,0830.5,5.02,0.00,29.8,28.6,00.0,38.5,31.7,18.8,0004.0,0008.31,0017.82,0006.98
2022-07-20 15:08:00,,0830.5,4.99,0.00,29.8,28.5,00.0,38.4,31.7,19.0,0003.7,0008.37,0017.95,0006.99
2022-07-20 15:09:00,,0830.5,5.01,0.00,29.8,27.8,00.0,38.4,31.6,18.7,0003.6,0008.39,0018.36,0006.99
2022-07-20 15:10:00,,0830.5,5.00,0.00,29.7,27.3,00.0,38.3,31.5,18.6,0003.5,0008.44,0018.37,0007.00
2022-07-20 15:11:00,,0830.5,4.99,0.00,29.7,27.3,00.0,38.4,31.5,18.8,0003.4,0008.50,0018.35,0007.02
2022-07-20 15:12:00,,0830.5,5.00,0.00,29.6,27.4,00.0,38.4,31.4,18.9,0003.5,0008.49,0018.93,0007.04
2022-07-20 15:13:00,,0830.5,5.00,0.00,29.6,27.6,00.0,38.4,31.4,19.2,0003.4,0008.51,0019.18,0007.05
2022-07-20 15:14:00,,0830.5,5.01,0.00,29.6,27.7,00.0,38.4,31.4,19.2,0003.3,0008.60,0019.59,0007.08
2022-07-20 15:15:00,,0830.5,4.99,0.00,29.6,27.9,00.0,38.4,31.5,19.4,0003.2,0008.64,0019.00,0007.09
2022-07-20 15:16:00,,0830.5,5.01,0.00,29.6,28.1,00.0,38.4,31.5,19.2,0003.2,0008.67,0018.56,0007.10
2022-07-20 15:17:00,,0830.5,4.99,0.00,29.6,28.2,00.0,38.4,31.6,19.0,0002.8,0008.67,0018.83,0007.10
2022-07-20 15:18:00,,0830.6,5.01,0.00,29.7,28.3,00.0,38.4,31.6,19.1,0002.8,0008.64,0018.81,0007.11
2022-07-20 15:19:00,,0830.6,5.00,0.00,29.7,28.5,00.0,38.4,31.6,19.1,0002.9,0008.66,0018.96,0007.14
2022-07-20 15:20:00,,0830.6,5.00,0.00,29.7,28.6,00.0,38.4,31.7,19.1,0003.3,0008.67,0019.29,0007.17
2022-07-20 15:21:00,,0830.6,5.00,0.00,29.8,28.3,00.0,38.4,31.7,19.0,0003.7,0008.64,0019.31,0007.18
2022-07-20 15:22:00,,0830.6,5.00,0.00,29.7,27.6,00.0,38.3,31.6,18.8,0003.5,0008.58,0018.97,0007.19
2022-07-20 15:23:00,,0830.6,5.00,0.00,29.7,27.3,00.0,38.3,31.5,18.8,0003.5,0008.60,0018.04,0007.21
2022-07-20 15:24:00,,0830.5,5.00,0.00,29.6,27.3,00.0,38.3,31.4,19.1,0003.2,0008.60,0017.33,0007.21
2022-07-20 15:25:00,,0830.5,5.00,0.00,29.6,27.5,00.0,38.3,31.4,19.3,0003.4,0008.49,0016.91,0007.18
2022-07-20 15:26:00,,0830.5,5.01,0.00,29.6,27.6,00.0,38.3,31.4,19.1,0003.6,0008.49,0017.11,0007.15
2022-07-20 15:27:00,,0830.5,4.99,0.00,29.6,27.8,00.0,38.3,31.4,18.9,0003.3,0008.43,0016.75,0007.15
2022-07-20 15:28:00,,0830.5,5.00,0.00,29.6,27.9,00.0,38.3,31.4,19.0,0003.4,0008.42,0017.29,0007.15
2022-07-20 15:29:00,,0830.5,5.00,0.00,29.6,28.1,00.0,38.3,31.5,19.3,0003.5,0008.46,0017.36,0007.14
2022-07-20 15:30:00,,0830.5,5.00,0.00,29.6,28.2,00.0,38.3,31.5,19.3,0000.0,0008.45,0018.50,0007.12
2022-07-20 15:31:00,,0830.5,5.01,0.00,29.6,28.4,00.0,38.4,31.6,19.1,0000.4,0008.45,0018.37,0007.09
2022-07-20 15:32:00,,0830.5,4.99,0.00,29.7,28.4,00.0,38.4,31.6,19.6,0000.0,0008.43,0018.44,0007.06
2022-07-20 15:33:00,,0830.5,5.00,0.00,29.7,28.0,00.0,38.3,31.6,19.6,0000.6,0008.40,0019.00,0007.06
2022-07-20 15:34:00,,0830.5,5.00,0.00,29.6,27.3,00.0,38.3,31.5,19.7,0000.9,0008.42,0019.03,0007.05
2022-07-20 15:35:00,,0830.5,5.01,0.00,29.6,27.1,00.0,38.2,31.4,19.5,0002.1,0008.39,0018.92,0007.06
2022-07-20 15:36:00,,0830.5,5.00,0.00,29.5,27.2,00.0,38.2,31.3,19.5,0001.3,0008.40,0018.81,0007.08
2022-07-20 15:37:00,,0830.4,4.99,0.00,29.5,27.4,00.0,38.2,31.3,19.7,0002.8,0008.33,0018.24,0007.08
2022-07-20 15:38:00,,0830.4,5.01,0.00,29.5,27.5,00.0,38.2,31.3,19.5,0002.9,0008.40,0018.88,0007.07
2022-07-20 15:39:00,,0830.4,5.01,0.00,29.5,27.7,00.0,38.2,31.4,19.3,0003.1,0008.45,0018.45,0007.08
2022-07-20 15:40:00,,0830.4,4.99,0.00,29.5,27.9,00.0,38.3,31.4,19.3,0003.3,0008.42,0018.45,0007.08
2022-07-20 15:41:00,,0830.4,5.01,0.00,29.5,28.1,00.0,38.3,31.4,19.2,0003.6,0008.36,0017.96,0007.06
2022-07-20 15:42:00,,0830.4,5.00,0.00,29.5,28.2,00.0,38.3,31.5,19.6,0003.8,0008.32,0017.47,0007.07
2022-07-20 15:43:00,,0830.4,4.99,0.00,29.6,28.3,00.0,38.3,31.5,19.8,0003.8,0008.31,0017.24,0007.09
2022-07-20 15:44:00,,0830.4,5.00,0.00,29.6,28.5,00.0,38.3,31.6,19.8,0003.6,0008.36,0018.50,0007.08
2022-07-20 15:45:00,,0830.4,5.00,0.00,29.6,28.5,00.0,38.3,31.7,19.6,0003.8,0008.32,0019.30,0007.08
2022-07-20 15:46:00,,0830.4,5.00,0.00,29.7,27.9,00.0,38.3,31.6,19.6,0004.0,0008.32,0019.50,0007.08
2022-07-20 15:47:00,,0830.4,5.00,0.00,29.6,27.3,00.0,38.2,31.5,19.7,0003.8,0008.33,0020.18,0007.09
2022-07-20 15:48:00,,0830.4,5.00,0.00,29.6,27.3,00.0,38.2,31.4,19.7,0003.5,0008.38,0020.95,0007.12
2022-07-20 15:49:00,,0830.4,5.00,0.00,29.5,27.4,00.0,38.2,31.3,20.1,0003.3,0008.32,0022.25,0007.13
2022-07-20 15:50:00,,0830.4,5.00,0.00,29.5,27.5,00.0,38.2,31.3,19.8,0003.8,0008.30,0022.78,0007.13
2022-07-20 15:51:00,,0830.4,5.01,0.00,29.5,27.7,00.0,38.2,31.3,19.7,0003.7,0008.32,0022.89,0007.13
2022-07-20 15:52:00,,0830.4,5.00,0.00,29.5,27.9,00.0,38.3,31.4,19.9,0003.7,0008.37,0022.78,0007.15
2022-07-20 15:53:00,,0830.4,5.01,0.00,29.5,28.0,00.0,38.3,31.4,19.6,0003.3,0008.41,0023.28,0007.16
2022-07-20 15:54:00,,0830.4,5.00,0.00,29.5,28.2,00.0,38.3,31.5,19.6,0003.4,0008.39,0023.25,0007.16
2022-07-20 15:55:00,,0830.4,5.00,0.00,29.6,28.3,00.0,38.3,31.5,19.9,0003.6,0008.40,0022.62,0007.16
2022-07-20 15:56:00,,0830.5,5.01,0.00,29.6,28.4,00.0,38.3,31.6,20.0,0003.6,0008.46,0021.91,0007.17
2022-07-20 15:57:00,,0830.5,4.99,0.00,29.6,28.3,00.0,38.3,31.6,19.8,0003.8,0008.51,0022.42,0007.16
2022-07-20 15:58:00,,0830.5,5.00,0.00,29.6,27.7,00.0,38.2,31.5,19.9,0004.2,0008.51,0022.38,0007.15
2022-07-20 15:59:00,,0830.4,5.00,0.00,29.6,27.3,00.0,38.2,31.4,20.0,0004.7,0008.49,0022.17,0007.12
